DECAYED

ELECTRON R/B, 62408 (Decayed)

Orbit data source: Space-Track

ELECTRON R/B, 62408 was space debris in LEO originally from a launch on Sat, 21 Dec 2024 UTC launched from the Rocket Lab Launch Complex (RLLC). Debris objects in space refer to the collection of defunct objects orbiting the Earth. Examples of debris include non-operational satellites, rocket bodies, and fragments generated from explosions, collisions, or faulty payload assembly.

Not visible in the next 10 days
Identifier
62408, 2024-248C
Orbit
Decayed
Country
Flag of USUS
Related business
Manufacturer
Rocket Lab
Mission
Decayed spacecraft
Bus & Motor
ELECTRON ST2, Unknown motor
Mass
250 kg wet, ~250 kg dry
Launch date (UTC)
2024-12-21 (1 year ago)
Launch vehicle
Unknown
Launch site
Rocket Lab Launch Complex (RLLC)
Object type
Payload
Rocket body
Debris
Shape & HBR
Cyl, Unknown HBR
Radar Cross Section
2.827 m², Medium (>0.1 m² and < 1m²)

Expand to show TLE details & history
Last TLE update: 1 year ago

TLE from 1 year ago
0 ELECTRON R/B
1 62408U 24248C   24364.74937155  .28433707  19034-5  47794-3 0  9990
2 62408  97.5072 319.3027 0052142 205.7092 203.0096 16.41320653  1299
Epoch: 2024-12-29T17:59Z
TLE epoch observation values (Epoch: 2024-12-29T17:59:05.701Z)
Latitude
48.04216°
Longitude
-57.53214°
Altitude
201.353 km
Speed
7.772 km/s
True Right ascension
20h 43m 41s
True Declination
47° 51' 24"
Sunlit
Object was in daylight at epoch
Visualization orbit readout
Latitude
Unknown
Longitude
Unknown
Altitude
Unknown
Speed
Unknown
Apparent Right ascension
Unknown
Apparent Declination
Unknown
Sunlit
N/A
Visualization observer readout
Local Sidereal Time
10:20:32
Azimuth
Unknown
Elevation
Unknown
Doppler factor
Unknown
Orbital elements
Apogee altitude
193.189 km
Perigee altitude
125.016 km
Semi-major axis
6,537.239 km
Eccentricity
0.00521
Inclination
97.5072°
RAAN
319.3027°
Arg. of periapsis
205.7092°
True anomaly
202.77744°
Mean anomaly
203.0096°
Eccentric anomaly
202.89338°
Mean motion
4.10631 °/min
Orbital period
87.67 mins
BSTAR
0.00047794
Loading maneuver chart data...
Computing Atmospheric mass density...
Loading historical data...
Loading historical data...
Loading historical data...
Loading historical data...
Loading historical data...
Loading historical data...
Loading historical data...
Other satellites on launch #248 in the year 2024 (2024-12-21 UTC)

Documentation

Showing up to 5 results
|